Weather History for Chipley, FL

Change the Weather History Date:

Wednesday, January 30, 2013

  Actual Average (KMAI) Record (KMAI)
Temperature  
Mean Temperature 60 °F 52 °F  
Max Temperature 73 °F 63 °F 80 °F (2002)
Min Temperature 48 °F 41 °F 24 °F (2014)
Degree Days  
Heating Degree Days 4    
Month to date heating degree days  
Since 1 July heating degree days  
Cooling Degree Days 0    
Month to date cooling degree days  
Year to date cooling degree days  
Growing Degree Days 10 (Base 50)    
Moisture  
Dew Point 48 °F    
Average Humidity 64    
Maximum Humidity 94    
Minimum Humidity 31    
Precipitation  
Precipitation 0.00 in 0.18 in 0.58 in (2006)
Month to date precipitation 4.83  
Year to date precipitation 4.83  
Sea Level Pressure  
Sea Level Pressure 29.88 in    
Wind  
Wind Speed 13 mph (West)    
Max Wind Speed 20 mph    
Max Gust Speed 36 mph    
Visibility 9 miles    
Events      
T = Trace of Precipitation, MM = Missing Value Source: NWS Daily Summary

Daily Weather History Graph

Daily Weather History Graph

Search for Another Location

Airport:

Trip Planner

Search our weather history database for the weather conditions in past years. The results will help you decide how hot, cold, wet, or windy it might be!

Date:

Astronomy

Jan. 30, 2013 Rise Set
Actual Time 6:34 AM CST 5:16 PM CST
Civil Twilight 6:09 AM CST 5:42 PM CST
Nautical Twilight 5:40 AM CST 6:11 PM CST
Astronomical Twilight 5:12 AM CST 6:39 PM CST
Moon 8:54 PM CST (1/30) 8:20 AM CST (1/30)
Length of Visible Light 11h 32m
Length of Day
10h 41m
Waning Gibbous, 87% of the Moon is Illuminated
Jan 30
Waning Gibbous
Feb 3
Last Quarter
Feb 10
New
Feb 17
First Quarter
Feb 25
Full

Hourly Weather History & Observations

Time (CST) Temp. Dew Point Humidity Pressure Visibility Wind Dir Wind Speed Gust Speed Precip Events Conditions
12:35 AM 73.4 °F 69.8 °F 88% 29.80 in 10.0 mi South 17.3 mph 25.3 mph N/A   Overcast
12:55 AM 73.4 °F 69.8 °F 88% 29.80 in 10.0 mi South 13.8 mph 28.8 mph N/A   Overcast
1:15 AM 73.4 °F 69.8 °F 88% 29.80 in 10.0 mi South 16.1 mph 26.5 mph N/A   Overcast
1:35 AM 73.4 °F 69.8 °F 88% 29.80 in 10.0 mi South 15.0 mph 24.2 mph N/A   Overcast
1:55 AM 73.4 °F 69.8 °F 88% 29.78 in 10.0 mi South 18.4 mph 26.5 mph N/A   Overcast
2:15 AM 73.4 °F 69.8 °F 88% 29.76 in 10.0 mi South 17.3 mph 29.9 mph N/A   Overcast
2:35 AM 73.4 °F 68.0 °F 83% 29.77 in 10.0 mi South 13.8 mph 26.5 mph N/A   Overcast
2:55 AM 73.4 °F 68.0 °F 83% 29.76 in 10.0 mi South 13.8 mph 25.3 mph N/A   Overcast
3:15 AM 73.4 °F 68.0 °F 83% 29.76 in 10.0 mi South 15.0 mph 24.2 mph N/A   Overcast
3:35 AM 73.4 °F 68.0 °F 83% 29.75 in 10.0 mi South 18.4 mph 27.6 mph N/A   Overcast
3:55 AM 73.4 °F 68.0 °F 83% 29.74 in 10.0 mi South 17.3 mph 26.5 mph N/A   Overcast
4:15 AM 73.4 °F 68.0 °F 83% 29.74 in 10.0 mi South 13.8 mph 26.5 mph N/A   Overcast
4:35 AM 73.4 °F 69.8 °F 88% 29.73 in 10.0 mi South 16.1 mph 27.6 mph N/A   Overcast
4:55 AM 73.4 °F 69.8 °F 88% 29.72 in 10.0 mi South 13.8 mph 26.5 mph N/A   Overcast
5:15 AM 73.4 °F 69.8 °F 88% 29.71 in 10.0 mi South 16.1 mph 27.6 mph N/A   Overcast
5:35 AM 73.4 °F 69.8 °F 88% 29.71 in 10.0 mi South 19.6 mph 29.9 mph N/A   Overcast
5:55 AM 73.4 °F 69.8 °F 88% 29.70 in 10.0 mi South 19.6 mph 29.9 mph N/A   Overcast
6:15 AM 73.4 °F 69.8 °F 88% 29.71 in 10.0 mi South 17.3 mph 35.7 mph N/A   Overcast
6:35 AM 73.4 °F 69.8 °F 88% 29.71 in 10.0 mi South 19.6 mph 29.9 mph N/A   Overcast
7:15 AM 73.4 °F 69.8 °F 88% 29.71 in 8.0 mi South 17.3 mph 27.6 mph N/A   Overcast
7:35 AM 73.4 °F 69.8 °F 88% 29.71 in 7.0 mi South 19.6 mph 35.7 mph N/A   Overcast
7:55 AM 73.4 °F 69.8 °F 88% 29.71 in 7.0 mi SSW 15.0 mph 33.4 mph N/A   Overcast
8:15 AM 64.4 °F 59.0 °F 83% 29.76 in 5.0 mi NW 8.1 mph 19.6 mph N/A   Overcast
8:35 AM 60.8 °F 57.2 °F 88% 29.77 in 1.0 mi NW 10.4 mph 16.1 mph N/A   Overcast
8:55 AM 57.2 °F 55.4 °F 94% 29.79 in 2.5 mi WNW 6.9 mph - N/A   Overcast
9:15 AM 57.2 °F 55.4 °F 94% 29.81 in 4.0 mi NW 3.5 mph - N/A   Overcast
9:35 AM 55.4 °F 48.2 °F 77% 29.81 in 5.0 mi NW 5.8 mph 19.6 mph N/A   Overcast
9:55 AM 55.4 °F 50.0 °F 82% 29.83 in 5.0 mi NNW 3.5 mph - N/A   Mostly Cloudy
10:15 AM 55.4 °F 51.8 °F 88% 29.82 in 8.0 mi WNW 3.5 mph - N/A   Overcast
10:35 AM 57.2 °F 51.8 °F 82% 29.83 in 8.0 mi West 4.6 mph - N/A   Overcast
10:55 AM 57.2 °F 53.6 °F 88% 29.83 in 10.0 mi West 6.9 mph - N/A   Mostly Cloudy
11:15 AM 57.2 °F 53.6 °F 88% 29.83 in 9.0 mi WNW 6.9 mph - N/A   Mostly Cloudy
11:35 AM 57.2 °F 51.8 °F 82% 29.83 in 10.0 mi NW 9.2 mph - N/A   Mostly Cloudy
11:55 AM 57.2 °F 50.0 °F 77% 29.83 in 10.0 mi WNW 6.9 mph - N/A   Overcast
12:15 PM 59.0 °F 50.0 °F 72% 29.84 in 10.0 mi West 5.8 mph - N/A   Overcast
12:35 PM 59.0 °F 50.0 °F 72% 29.84 in 10.0 mi West 4.6 mph - N/A   Overcast
12:55 PM 60.8 °F 51.8 °F 72% 29.85 in 10.0 mi WSW 3.5 mph - N/A   Overcast
1:15 PM 60.8 °F 44.6 °F 55% 29.83 in 10.0 mi West 8.1 mph - N/A   Overcast
1:35 PM 60.8 °F 42.8 °F 52% 29.86 in 10.0 mi WSW 6.9 mph - N/A   Overcast
1:55 PM 62.6 °F 42.8 °F 48% 29.84 in 5.0 mi West 8.1 mph - N/A   Overcast
2:15 PM 62.6 °F 37.4 °F 39% 29.85 in 5.0 mi West 8.1 mph 17.3 mph N/A   Overcast
2:35 PM 62.6 °F 35.6 °F 37% 29.85 in 8.0 mi West 10.4 mph 17.3 mph N/A   Overcast
2:55 PM 62.6 °F 35.6 °F 37% 29.86 in 8.0 mi West 10.4 mph 18.4 mph N/A   Overcast
3:15 PM 60.8 °F 30.2 °F 31% 29.87 in 10.0 mi WSW 6.9 mph 19.6 mph N/A   Overcast
3:35 PM 60.8 °F 32.0 °F 34% 29.87 in 10.0 mi West 6.9 mph - N/A   Overcast
3:55 PM 60.8 °F 30.2 °F 31% 29.88 in 10.0 mi West 9.2 mph 20.7 mph N/A   Overcast
4:15 PM 60.8 °F 30.2 °F 31% 29.89 in 10.0 mi West 3.5 mph 18.4 mph N/A   Scattered Clouds
4:35 PM 60.8 °F 30.2 °F 31% 29.90 in 10.0 mi West 9.2 mph 20.7 mph N/A   Partly Cloudy
4:55 PM 60.8 °F 30.2 °F 31% 29.91 in 10.0 mi WNW 15.0 mph 24.2 mph N/A   Clear
5:15 PM 59.0 °F 32.0 °F 36% 29.92 in 10.0 mi WNW 11.5 mph 18.4 mph N/A   Clear
5:35 PM 59.0 °F 32.0 °F 36% 29.94 in 10.0 mi WNW 10.4 mph - N/A   Clear
5:55 PM 57.2 °F 33.8 °F 41% 29.95 in 10.0 mi NW 10.4 mph 20.7 mph N/A   Clear
6:15 PM 57.2 °F 33.8 °F 41% 29.97 in 10.0 mi NW 11.5 mph 21.9 mph N/A   Clear
6:35 PM 57.2 °F 32.0 °F 38% 30.00 in 10.0 mi WNW 9.2 mph 20.7 mph N/A   Clear
6:55 PM 55.4 °F 32.0 °F 41% 30.01 in 10.0 mi WNW 9.2 mph 20.7 mph N/A   Clear
7:15 PM 55.4 °F 33.8 °F 44% 30.04 in 10.0 mi NW 15.0 mph 25.3 mph N/A   Clear
7:35 PM 53.6 °F 32.0 °F 44% 30.04 in 10.0 mi NNW 8.1 mph 23.0 mph N/A   Clear
7:55 PM 53.6 °F 30.2 °F 41% 30.07 in 10.0 mi NW 9.2 mph 26.5 mph N/A   Clear
8:15 PM 53.6 °F 32.0 °F 44% 30.08 in 10.0 mi NW 13.8 mph 26.5 mph N/A   Clear
8:35 PM 51.8 °F 32.0 °F 47% 30.11 in 10.0 mi NNW 9.2 mph 21.9 mph N/A   Clear
8:55 PM 51.8 °F 26.6 °F 38% 30.12 in 10.0 mi NW 13.8 mph 25.3 mph N/A   Clear
9:15 PM 51.8 °F 26.6 °F 38% 30.12 in 10.0 mi NW 10.4 mph 19.6 mph N/A   Clear
9:35 PM 51.8 °F 26.6 °F 38% 30.13 in 10.0 mi NW 16.1 mph 24.2 mph N/A   Clear
9:55 PM 50.0 °F 28.4 °F 43% 30.15 in 10.0 mi NW 8.1 mph 20.7 mph N/A   Clear
10:15 PM 50.0 °F 28.4 °F 43% 30.16 in 10.0 mi NNW 10.4 mph 23.0 mph N/A   Clear
10:35 PM 50.0 °F 28.4 °F 43% 30.17 in 10.0 mi NW 12.7 mph 21.9 mph N/A   Clear
10:55 PM 50.0 °F 28.4 °F 43% 30.18 in 10.0 mi NNW 6.9 mph 19.6 mph N/A   Clear
11:15 PM 50.0 °F 28.4 °F 43% 30.18 in 10.0 mi NNW 10.4 mph 19.6 mph N/A   Clear
11:35 PM 48.2 °F 28.4 °F 46% 30.19 in 10.0 mi NNW 5.8 mph 16.1 mph N/A   Clear
11:55 PM 48.2 °F 28.4 °F 46% 30.20 in 10.0 mi North 5.8 mph - N/A   Clear